Location: Lewisville
(33.0462°N, 96.9942°W)
Time: 07:34:36
(UTC-06:00)

LightSail 2 - Pass Details

Date: 12 March 2020
Orbit: 678 x 693 km, 24.0° (Epoch: 26 November)

Event Time Altitude Azimuth Distance (km) Brightness Sun altitude
Rises 20:20:20 0° 254° (WSW) 3,184 10.1 -10.5°
Reaches altitude 10° 20:24:14 10° 227° (SW) 2,219 8.3 -11.3°
Maximum altitude 20:26:31 13° 201° (SSW) 2,007 7.7 -11.8°
Drops below altitude 10° 20:28:46 10° 175° (S) 2,175 7.6 -12.3°
Enters shadow 20:31:57 - 150° (SSE) 2,900 8.0 -12.9°
